This is the latest recevied weather packets stored in our database for station/object SQ6RR-12. If no packets are shown the sender has not sent any weather packets the latest 10 day(s).
| Time | Temp. | Humidity | Pressure | Rain* | Wind** | Luminosity | Snow |
|---|---|---|---|---|---|---|---|
| 1777813227 | 27.78° C | 22% | 1017 hPa | 0 mm | - | - | - |
| 1777812963 | 27.22° C | 22% | 1017 hPa | 0 mm | - | - | - |
| 1777812702 | 27.78° C | 23% | 1017.1 hPa | 0 mm | - | - | - |
| 1777812423 | 27.78° C | 22% | 1017.1 hPa | 0 mm | - | - | - |
| 1777812158 | 28.33° C | 21% | 1017.2 hPa | 0 mm | - | - | - |
| 1777811905 | 28.33° C | 23% | 1017.2 hPa | 0 mm | - | - | - |
| 1777811636 | 27.78° C | 24% | 1017.2 hPa | 0 mm | - | - | - |
| 1777811357 | 27.22° C | 25% | 1017.3 hPa | 0 mm | - | - | - |
| 1777811092 | 27.22° C | 25% | 1017.2 hPa | 0 mm | - | - | - |
| 1777810817 | 27.78° C | 22% | 1017.4 hPa | 0 mm | - | - | - |
| 1777810542 | 27.22° C | 25% | 1017.5 hPa | 0 mm | - | - | - |
| 1777810264 | 26.67° C | 26% | 1017.5 hPa | 0 mm | - | - | - |
| 1777809992 | 26.67° C | 24% | 1017.5 hPa | 0 mm | - | - | - |
| 1777809737 | 27.22° C | 25% | 1017.5 hPa | 0 mm | - | - | - |
| 1777809470 | 26.67° C | 28% | 1017.5 hPa | 0 mm | - | - | - |
| 1777809192 | 26.67° C | 25% | 1017.6 hPa | 0 mm | - | - | - |
| 1777808932 | 26.11° C | 29% | 1017.6 hPa | 0 mm | - | - | - |
| 1777808662 | 25.56° C | 29% | 1017.6 hPa | 0 mm | - | - | - |
| 1777808405 | 25.56° C | 29% | 1017.7 hPa | 0 mm | - | - | - |
| 1777808124 | 25.56° C | 27% | 1017.8 hPa | 0 mm | - | - | - |
| 1777807852 | 25.56° C | 29% | 1017.7 hPa | 0 mm | - | - | - |
| 1777807589 | 25° C | 29% | 1017.9 hPa | 0 mm | - | - | - |
| 1777807322 | 25° C | 29% | 1018 hPa | 0 mm | - | - | - |
| 1777807037 | 25° C | 28% | 1018 hPa | 0 mm | - | - | - |
| 1777806777 | 25° C | 28% | 1018.1 hPa | 0 mm | - | - | - |
* Rain latest hour (hover to see other rain measurements)
** Current wind speed in m/s (hover to see current wind gust speed)